When you browse on this site, cookies collect data to enhance your experience and personalize the content and advertising you see.
Visit our Privacy Policy to learn more. By continuing to use the site, you agree to this use of cookies and data.
  • en France
  • Liste des pays
  • À 7 jours
  • Température de l'eau
  • Carte météo
  • Widgets météo
  • user-avatar
    Se connecter

    Météo par heure à Toulouse

    Ce jour, 19 Août, Lundi

    Heure Température Précipitation Vent Pression Humidité
    00:00 +20°C° 0 mm 4 m/s 750 mmHg 88%
    01:00 +19°C° 0.1 mm 4 m/s 750 mmHg 89%
    02:00 +19°C° 0.1 mm 3 m/s 750 mmHg 89%
    03:00 +18°C° 0.1 mm 3 m/s 750 mmHg 90%
    04:00 +18°C° 0 mm 3 m/s 750 mmHg 88%
    05:00 +18°C° 0 mm 3 m/s 750 mmHg 87%
    06:00 +18°C° 0 mm 2 m/s 751 mmHg 86%
    07:00 +19°C° 0 mm 2 m/s 751 mmHg 80%
    08:00 +19°C° 0 mm 2 m/s 751 mmHg 74%
    09:00 +20°C° 0 mm 3 m/s 751 mmHg 67%
    10:00 +21°C° 0 mm 3 m/s 751 mmHg 61%
    11:00 +22°C° 0 mm 3 m/s 751 mmHg 55%
    12:00 +25°C° 0 mm 4 m/s 751 mmHg 49%
    13:00 +25°C° 0 mm 4 m/s 751 mmHg 48%
    14:00 +25°C° 0 mm 4 m/s 751 mmHg 47%
    15:00 +26°C° 0 mm 4 m/s 750 mmHg 46%
    16:00 +25°C° 0 mm 4 m/s 750 mmHg 49%
    17:00 +24°C° 0 mm 3 m/s 750 mmHg 51%
    18:00 +24°C° 0 mm 3 m/s 750 mmHg 53%
    19:00 +22°C° 0 mm 3 m/s 751 mmHg 57%
    20:00 +21°C° 0 mm 2 m/s 751 mmHg 60%
    21:00 +20°C° 0 mm 2 m/s 752 mmHg 64%
    22:00 +19°C° 0.6 mm 2 m/s 752 mmHg 71%
    23:00 +18°C° 0.6 mm 2 m/s 752 mmHg 78%

    Demain, 20 Août, Mardi

    Heure Température Précipitation Vent Pression Humidité
    00:00 +17°C° 0.6 mm 2 m/s 752 mmHg 85%
    01:00 +17°C° 1.8 mm 2 m/s 752 mmHg 88%
    02:00 +16°C° 1.8 mm 2 m/s 751 mmHg 91%
    03:00 +16°C° 1.8 mm 2 m/s 751 mmHg 94%
    04:00 +16°C° 2.1 mm 2 m/s 751 mmHg 94%
    05:00 +16°C° 2.1 mm 2 m/s 752 mmHg 95%
    06:00 +16°C° 2.1 mm 2 m/s 752 mmHg 95%
    07:00 +16°C° 2.5 mm 2 m/s 752 mmHg 95%
    08:00 +16°C° 2.5 mm 2 m/s 753 mmHg 94%
    09:00 +16°C° 2.5 mm 2 m/s 753 mmHg 94%
    10:00 +17°C° 1.5 mm 2 m/s 753 mmHg 91%
    11:00 +18°C° 1.5 mm 2 m/s 754 mmHg 89%
    12:00 +18°C° 1.5 mm 2 m/s 754 mmHg 87%
    13:00 +19°C° 0.2 mm 2 m/s 754 mmHg 83%
    14:00 +19°C° 0.2 mm 2 m/s 754 mmHg 79%
    15:00 +20°C° 0.2 mm 2 m/s 754 mmHg 75%
    16:00 +21°C° 0 mm 1 m/s 754 mmHg 74%
    17:00 +21°C° 0 mm 1 m/s 754 mmHg 73%
    18:00 +21°C° 0 mm 1 m/s 754 mmHg 72%
    19:00 +20°C° 0 mm 1 m/s 754 mmHg 77%
    20:00 +18°C° 0 mm 2 m/s 754 mmHg 81%
    21:00 +17°C° 0 mm 2 m/s 755 mmHg 86%
    22:00 +16°C° 0 mm 1 m/s 755 mmHg 87%
    23:00 +16°C° 0 mm 1 m/s 755 mmHg 88%

    Après-demain, 21 Août, Mercredi

    Heure Température Précipitation Vent Pression Humidité
    00:00 +15°C° 0 mm 1 m/s 754 mmHg 90%
    01:00 +14°C° 0 mm 0 m/s 754 mmHg 90%
    02:00 +14°C° 0 mm 0 m/s 754 mmHg 90%
    03:00 +14°C° 0 mm 0 m/s 754 mmHg 90%
    04:00 +14°C° 0 mm 0 m/s 754 mmHg 90%
    05:00 +14°C° 0 mm 0 m/s 753 mmHg 89%
    06:00 +14°C° 0 mm 0 m/s 753 mmHg 88%
    07:00 +16°C° 0 mm 0 m/s 753 mmHg 80%
    08:00 +20°C° 0 mm 1 m/s 753 mmHg 72%
    09:00 +22°C° 0 mm 1 m/s 753 mmHg 64%
    10:00 +23°C° 0 mm 1 m/s 752 mmHg 58%
    11:00 +24°C° 0 mm 2 m/s 752 mmHg 51%
    12:00 +25°C° 0 mm 2 m/s 752 mmHg 45%
    13:00 +26°C° 0 mm 3 m/s 752 mmHg 42%
    14:00 +26°C° 0 mm 3 m/s 751 mmHg 40%
    15:00 +27°C° 0 mm 3 m/s 751 mmHg 38%
    16:00 +26°C° 0 mm 2 m/s 751 mmHg 42%
    17:00 +25°C° 0 mm 2 m/s 751 mmHg 46%
    18:00 +24°C° 0 mm 1 m/s 751 mmHg 51%
    19:00 +22°C° 0 mm 1 m/s 752 mmHg 52%
    20:00 +20°C° 0 mm 2 m/s 752 mmHg 53%
    21:00 +19°C° 0 mm 2 m/s 752 mmHg 55%
    22:00 +18°C° 0 mm 2 m/s 752 mmHg 58%
    23:00 +17°C° 0 mm 2 m/s 753 mmHg 61%

    22 Août, Jeudi

    Heure Température Précipitation Vent Pression Humidité
    00:00 +16°C° 0 mm 2 m/s 753 mmHg 65%
    01:00 +16°C° 0 mm 2 m/s 752 mmHg 67%
    02:00 +15°C° 0 mm 2 m/s 752 mmHg 69%
    03:00 +15°C° 0 mm 2 m/s 752 mmHg 71%
    04:00 +15°C° 0 mm 2 m/s 753 mmHg 73%
    05:00 +15°C° 0 mm 2 m/s 753 mmHg 74%
    06:00 +15°C° 0 mm 2 m/s 753 mmHg 75%
    07:00 +17°C° 0 mm 2 m/s 753 mmHg 68%
    08:00 +20°C° 0 mm 2 m/s 753 mmHg 61%
    09:00 +22°C° 0 mm 3 m/s 753 mmHg 54%
    10:00 +24°C° 0 mm 3 m/s 753 mmHg 50%
    11:00 +26°C° 0 mm 3 m/s 753 mmHg 45%
    12:00 +27°C° 0 mm 3 m/s 752 mmHg 40%
    13:00 +28°C° 0 mm 3 m/s 752 mmHg 38%
    14:00 +28°C° 0 mm 3 m/s 752 mmHg 37%
    15:00 +29°C° 0 mm 3 m/s 751 mmHg 35%
    16:00 +28°C° 0 mm 2 m/s 751 mmHg 39%
    17:00 +27°C° 0 mm 2 m/s 751 mmHg 44%
    18:00 +25°C° 0 mm 1 m/s 751 mmHg 48%
    19:00 +24°C° 0 mm 1 m/s 752 mmHg 50%
    20:00 +21°C° 0 mm 2 m/s 752 mmHg 52%
    21:00 +20°C° 0 mm 2 m/s 752 mmHg 54%
    22:00 +20°C° 0 mm 1 m/s 752 mmHg 57%
    23:00 +19°C° 0 mm 1 m/s 752 mmHg 59%

    23 Août, Vendredi

    Heure Température Précipitation Vent Pression Humidité
    00:00 +19°C° 0 mm 1 m/s 752 mmHg 61%
    01:00 +18°C° 0 mm 1 m/s 752 mmHg 63%
    02:00 +18°C° 0 mm 1 m/s 752 mmHg 64%
    03:00 +16°C° 0 mm 1 m/s 751 mmHg 66%
    04:00 +16°C° 0 mm 1 m/s 751 mmHg 67%
    05:00 +18°C° 0 mm 1 m/s 751 mmHg 68%
    06:00 +16°C° 0 mm 0 m/s 751 mmHg 68%
    07:00 +18°C° 0 mm 0 m/s 751 mmHg 61%
    08:00 +21°C° 0 mm 0 m/s 751 mmHg 54%
    09:00 +23°C° 0 mm 0 m/s 751 mmHg 46%
    10:00 +27°C° 0 mm 1 m/s 751 mmHg 42%
    11:00 +29°C° 0 mm 1 m/s 751 mmHg 38%
    12:00 +30°C° 0 mm 1 m/s 750 mmHg 34%
    13:00 +31°C° 0 mm 1 m/s 750 mmHg 32%
    14:00 +31°C° 0 mm 2 m/s 750 mmHg 30%
    15:00 +32°C° 0 mm 2 m/s 749 mmHg 28%
    16:00 +30°C° 0 mm 2 m/s 749 mmHg 33%
    17:00 +29°C° 0 mm 2 m/s 749 mmHg 37%
    18:00 +28°C° 0 mm 2 m/s 749 mmHg 42%
    19:00 +26°C° 0 mm 1 m/s 749 mmHg 45%
    20:00 +24°C° 0 mm 1 m/s 749 mmHg 47%
    21:00 +21°C° 0 mm 0 m/s 750 mmHg 49%
    22:00 +22°C° 0 mm 1 m/s 750 mmHg 51%
    23:00 +22°C° 0 mm 1 m/s 749 mmHg 53%

    24 Août, Samedi

    Heure Température Précipitation Vent Pression Humidité
    00:00 +21°C° 0 mm 1 m/s 749 mmHg 55%
    01:00 +21°C° 0 mm 1 m/s 749 mmHg 56%
    02:00 +20°C° 0 mm 1 m/s 749 mmHg 58%
    03:00 +20°C° 0 mm 1 m/s 748 mmHg 59%
    04:00 +20°C° 0 mm 1 m/s 748 mmHg 60%
    05:00 +20°C° 0 mm 1 m/s 749 mmHg 61%
    06:00 +20°C° 0 mm 1 m/s 749 mmHg 61%
    07:00 +22°C° 0 mm 1 m/s 749 mmHg 55%
    08:00 +25°C° 0 mm 2 m/s 749 mmHg 48%
    09:00 +28°C° 0 mm 2 m/s 749 mmHg 41%
    10:00 +30°C° 0 mm 1 m/s 749 mmHg 37%
    11:00 +32°C° 0 mm 1 m/s 748 mmHg 32%
    12:00 +32°C° 0 mm 0 m/s 748 mmHg 28%
    13:00 +35°C° 0 mm 1 m/s 748 mmHg 26%
    14:00 +36°C° 0 mm 2 m/s 748 mmHg 23%
    15:00 +36°C° 0 mm 3 m/s 747 mmHg 21%
    16:00 +34°C° 0 mm 2 m/s 747 mmHg 25%
    17:00 +32°C° 0 mm 2 m/s 747 mmHg 29%
    18:00 +30°C° 0 mm 2 m/s 747 mmHg 34%
    19:00 +28°C° 0 mm 2 m/s 747 mmHg 35%
    20:00 +27°C° 0 mm 2 m/s 747 mmHg 37%
    21:00 +25°C° 0 mm 2 m/s 747 mmHg 38%
    22:00 +25°C° 0 mm 2 m/s 747 mmHg 42%
    23:00 +24°C° 0 mm 2 m/s 747 mmHg 46%
    Voir plus